DW5656 Weather Reports


Display with metric or nautical units.
time (UTC)temp
F
wind
direction
speed
MPH
gust
MPH
rain 1hr
in
rain 24hr
in
rain mn
in
humidity
%
barometer
mb
20260507135938 72 224 6.0 16.0 0.00 0.00 0.00 51 1009.3
20260507135038 72 239 6.0 14.0 0.00 0.00 0.00 52 1009.4
20260507134159 72 231 8.0 17.0 0.00 0.00 0.00 53 1009.6
20260507133238 72 230 6.0 17.0 0.00 0.00 0.00 54 1009.6
20260507132338 72 218 6.0 14.0 0.00 0.00 0.00 53 1009.6
20260507131438 71 219 7.0 17.0 0.00 0.00 0.00 52 1009.7
20260507130538 71 219 7.0 15.0 0.00 0.00 0.00 53 1009.7
20260507125638 71 215 7.0 15.0 0.00 0.00 0.00 54 1009.8
20260507124759 71 218 7.0 16.0 0.00 0.00 0.00 54 1009.8
20260507123838 71 220 7.0 15.0 0.00 0.00 0.00 54 1009.8
20260507122938 72 227 6.0 16.0 0.00 0.00 0.00 55 1010.0
20260507122038 71 232 7.0 14.0 0.00 0.00 0.00 56 1009.9
20260507121159 71 230 5.0 14.0 0.00 0.00 0.00 56 1009.9
20260507120238 71 230 6.0 14.0 0.00 0.00 0.00 56 1010.0
20260507115338 70 235 5.0 14.0 0.00 0.00 0.00 55 1010.0
20260507114438 71 228 5.0 12.0 0.00 0.00 0.00 56 1010.2
20260507113538 71 236 5.0 11.0 0.00 0.00 0.00 57 1010.3
20260507112638 70 199 4.0 12.0 0.00 0.00 0.00 57 1010.3
20260507111738 70 216 5.0 10.0 0.00 0.00 0.00 59 1010.4
20260507110838 70 207 4.0 13.0 0.00 0.00 0.00 60 1010.5
20260507105959 70 205 3.0 11.0 0.00 0.00 0.00 59 1010.5
20260507105038 70 195 4.0 10.0 0.00 0.00 0.00 58 1010.4
20260507104138 69 193 4.0 13.0 0.00 0.00 0.00 59 1010.4
20260507103238 69 210 4.0 14.0 0.00 0.00 0.00 62 1010.6
20260507102338 68 210 3.0 9.0 0.00 0.00 0.00 63 1010.6
20260507101438 67 220 2.0 11.0 0.00 0.00 0.00 66 1010.7
20260507100538 68 227 1.0 10.0 0.00 0.00 0.00 66 1010.7
20260507095638 68 188 3.0 8.0 0.00 0.00 0.00 67 1010.7
20260507094737 67 186 4.0 13.0 0.00 0.00 0.00 67 1010.8
20260507093859 66 206 3.0 13.0 0.00 0.00 0.00 68 1010.7
20260507092958 66 195 1.0 11.0 0.00 0.00 0.00 71 1010.7
20260507092037 65 211 2.0 6.0 0.00 0.00 0.00 72 1010.6
20260507091138 65 232 1.0 12.0 0.00 0.00 0.00 72 1010.7
20260507090238 65 220 2.0 10.0 0.00 0.00 0.00 73 1010.7
20260507085337 65 200 2.0 11.0 0.00 0.00 0.00 72 1010.7
20260507084438 65 206 3.0 14.0 0.00 0.00 0.00 73 1010.5
20260507083537 65 200 3.0 17.0 0.00 0.00 0.00 73 1010.6
20260507082658 64 167 3.0 16.0 0.00 0.00 0.00 74 1010.5
20260507081737 64 190 3.0 13.0 0.00 0.00 0.00 73 1010.4
20260507080837 64 173 2.0 12.0 0.00 0.00 0.00 73 1010.5
20260507075937 64 192 2.0 8.0 0.00 0.00 0.00 73 1010.4
20260507075037 63 192 2.0 10.0 0.00 0.00 0.00 73 1010.4
20260507074138 63 187 2.0 9.0 0.00 0.00 0.00 73 1010.4
20260507073237 62 155 2.0 10.0 0.00 0.00 0.00 73 1010.3
20260507072358 62 144 1.0 7.0 0.00 0.00 0.00 73 1010.2
20260507071437 61 165 2.0 9.0 0.00 0.00 0.00 74 1010.1
20260507070537 61 148 2.0 7.0 0.00 0.00 0.00 74 1010.1
20260507065637 60 177 2.0 8.0 0.00 0.00 0.00 75 1010.0
20260507064737 60 141 1.0 6.0 0.00 0.00 0.00 75 1010.0
20260507063858 60 158 1.0 5.0 0.00 0.00 0.00 76 1010.0
20260507062958 60 152 0.0 4.0 0.00 0.00 0.00 76 1009.8
20260507062058 60 209 0.0 3.0 0.00 0.00 0.00 76 1009.8
20260507061137 60 181 0.0 3.0 0.00 0.00 0.00 76 1009.7
20260507060237 60 168 1.0 5.0 0.00 0.00 0.00 77 1009.6
20260507055337 59 157 0.0 7.0 0.00 0.00 0.00 77 1009.5
20260507054437 59 197 1.0 3.0 0.00 0.00 0.00 77 1009.5
20260507053537 59 187 0.0 4.0 0.00 0.00 0.00 77 1009.4
20260507052637 59 252 0.0 2.0 0.00 0.00 0.00 76 1009.5
20260507051737 59 252 0.0 3.0 0.00 0.00 0.00 76 1009.6
20260507050837 60 252 1.0 3.0 0.00 0.00 0.00 76 1009.5
20260507045937 60 236 0.0 4.0 0.00 0.00 0.00 76 1009.4
20260507045037 60 217 0.0 4.0 0.00 0.00 0.00 77 1009.4
20260507044158 60 90 0.0 2.0 0.00 0.00 0.00 77 1009.2
20260507043237 60 158 1.0 4.0 0.00 0.00 0.00 77 1009.2
20260507042337 60 188 1.0 6.0 0.00 0.00 0.00 77 1009.2
20260507041437 60 188 1.0 6.0 0.00 0.00 0.00 76 1009.1
20260507040558 60 205 1.0 4.0 0.00 0.00 0.00 76 1009.1
20260507035637 60 189 1.0 4.0 0.00 0.00 0.00 76 1009.0
20260507034737 60 207 1.0 6.0 0.00 0.00 0.00 76 1008.9
20260507033838 60 218 1.0 6.0 0.00 0.00 0.00 76 1009.0
20260507032937 60 250 1.0 5.0 0.00 0.00 0.00 76 1009.0
20260507032037 60 239 1.0 4.0 0.00 0.00 0.00 75 1009.1
20260507031136 61 230 1.0 5.0 0.00 0.00 0.00 75 1009.1
20260507030237 61 212 0.0 3.0 0.00 0.00 0.00 75 1009.0
20260507025336 61 235 1.0 4.0 0.00 0.00 0.00 75 1008.9
20260507024436 60 217 2.0 5.0 0.00 0.00 0.00 75 1008.9
20260507023536 60 204 2.0 6.0 0.00 0.00 0.00 76 1008.9
20260507022657 60 200 2.0 6.0 0.00 0.00 0.00 75 1008.7
20260507021736 60 200 3.0 6.0 0.00 0.00 0.00 75 1008.7
20260507020837 61 212 3.0 9.0 0.00 0.00 0.00 75 1008.8
20260507015957 61 212 3.0 7.0 0.00 0.00 0.00 75 1008.8
20260507015036 61 208 3.0 9.0 0.00 0.00 0.00 74 1008.9
20260507014136 61 200 2.0 7.0 0.00 0.00 0.00 74 1008.9
20260507013257 61 204 2.0 10.0 0.00 0.00 0.00 74 1009.0
20260507012336 61 209 3.0 10.0 0.00 0.00 0.00 74 1009.0
20260507011436 61 209 3.0 10.0 0.00 0.00 0.00 73 1009.1
20260507010557 61 207 0.0 9.0 0.00 0.00 0.00 73 1009.3
20260507005636 61 191 2.0 4.0 0.00 0.00 0.00 73 1009.4
20260507004736 61 200 2.0 8.0 0.00 0.00 0.00 73 1009.5
20260507003836 61 205 3.0 6.0 0.00 0.00 0.00 72 1009.5
20260507002936 61 206 2.0 7.0 0.00 0.00 0.00 72 1009.4
20260507002036 61 200 3.0 6.0 0.00 0.00 0.00 72 1009.5
20260507001136 62 207 3.0 9.0 0.00 0.00 0.00 72 1009.5
20260507000236 62 200 3.0 8.0 0.00 0.00 0.00 72 1009.6
20260506235336 62 215 3.0 7.0 0.00 0.00 0.00 72 1009.7
20260506234457 62 219 3.0 9.0 0.00 0.00 0.00 72 1009.7
20260506233536 62 224 3.0 7.0 0.00 0.00 0.00 72 1009.7
20260506232636 62 228 3.0 8.0 0.00 0.00 0.00 72 1009.7
20260506231757 62 231 2.0 7.0 0.00 0.00 0.00 72 1009.8
20260506230857 62 237 2.0 9.0 0.00 0.00 0.00 72 1009.8
20260506225936 63 242 2.0 5.0 0.00 0.00 0.00 71 1009.9
20260506225036 63 243 3.0 7.0 0.00 0.00 0.00 70 1009.8
20260506224157 63 236 4.0 8.0 0.00 0.00 0.00 69 1009.8
20260506223236 63 224 4.0 9.0 0.00 0.00 0.00 68 1010.0
20260506222357 63 221 3.0 7.0 0.00 0.00 0.00 65 1009.9
20260506221436 64 219 3.0 6.0 0.00 0.00 0.00 64 1009.8
20260506220536 64 220 3.0 8.0 0.00 0.00 0.00 62 1009.7
20260506215635 64 226 3.0 7.0 0.00 0.00 0.00 61 1009.7
20260506214757 64 228 4.0 7.0 0.00 0.00 0.00 60 1009.7
20260506213835 65 218 3.0 7.0 0.00 0.00 0.00 60 1009.7
20260506212936 65 230 3.0 6.0 0.00 0.00 0.00 58 1009.6
20260506212035 66 234 5.0 8.0 0.00 0.00 0.00 57 1009.4
20260506211135 66 247 6.0 11.0 0.00 0.00 0.00 56 1009.3
20260506210236 66 245 5.0 11.0 0.00 0.00 0.00 55 1009.3
20260506205336 66 261 4.0 13.0 0.00 0.00 0.00 55 1009.1
20260506204456 67 269 3.0 11.0 0.00 0.00 0.00 54 1009.0
20260506203535 67 265 4.0 8.0 0.00 0.00 0.00 54 1008.9
20260506202656 67 258 4.0 9.0 0.00 0.00 0.00 54 1008.8
20260506201735 68 246 4.0 8.0 0.00 0.00 0.00 53 1008.9
20260506200835 68 240 4.0 7.0 0.00 0.00 0.00 53 1008.9
20260506195935 69 253 6.0 12.0 0.00 0.00 0.00 51 1008.8
20260506195056 69 275 7.0 14.0 0.00 0.00 0.00 51 1008.7
20260506194135 69 266 5.0 13.0 0.00 0.00 0.00 50 1008.5
20260506193235 70 267 5.0 10.0 0.00 0.00 0.00 49 1008.5
20260506192335 70 262 6.0 12.0 0.00 0.00 0.00 50 1008.3
20260506191435 70 266 6.0 12.0 0.00 0.00 0.00 49 1008.3
20260506190556 71 252 6.0 12.0 0.00 0.00 0.00 48 1008.2
20260506185656 72 254 6.0 13.0 0.00 0.00 0.00 47 1008.1
20260506184735 72 257 6.0 14.0 0.00 0.00 0.00 47 1008.0
20260506183835 73 254 6.0 15.0 0.00 0.00 0.00 46 1008.1
20260506182935 73 272 7.0 14.0 0.00 0.00 0.00 46 1008.1
20260506182035 73 261 7.0 15.0 0.00 0.00 0.00 45 1008.1
20260506181135 74 244 7.0 14.0 0.00 0.00 0.00 43 1007.9
20260506180256 74 247 7.0 12.0 0.00 0.00 0.00 42 1007.9
20260506175356 74 243 6.0 15.0 0.00 0.00 0.00 41 1008.0
20260506174456 75 239 6.0 12.0 0.00 0.00 0.00 41 1008.0
20260506173535 75 240 8.0 16.0 0.00 0.00 0.00 41 1008.1
20260506172656 75 244 9.0 16.0 0.00 0.00 0.00 41 1008.0
20260506171735 75 243 7.0 16.0 0.00 0.00 0.00 41 1008.2
20260506170835 76 228 6.0 15.0 0.00 0.00 0.00 40 1008.2
20260506165935 76 221 7.0 15.0 0.00 0.00 0.00 40 1008.1
20260506165035 76 231 6.0 16.0 0.00 0.00 0.00 40 1008.1
20260506164135 77 228 5.0 11.0 0.00 0.00 0.00 39 1008.2
20260506163235 77 211 4.0 13.0 0.00 0.00 0.00 38 1008.2
20260506162335 78 208 3.0 10.0 0.00 0.00 0.00 36 1008.2
20260506161435 77 190 2.0 8.0 0.00 0.00 0.00 34 1008.3
20260506160557 77 155 3.0 9.0 0.00 0.00 0.00 35 1008.3
20260506155656 77 162 3.0 9.0 0.00 0.00 0.00 34 1008.3
20260506154735 77 179 2.0 8.0 0.00 0.00 0.00 34 1008.4
20260506153834 78 269 3.0 6.0 0.00 0.00 0.00 35 1008.4
20260506152935 77 254 3.0 7.0 0.00 0.00 0.00 36 1008.6
20260506152034 77 233 3.0 11.0 0.00 0.00 0.00 36 1008.7
20260506151135 77 186 3.0 9.0 0.00 0.00 0.00 35 1008.8
20260506150234 77 219 3.0 9.0 0.00 0.00 0.00 36 1008.9
20260506145334 76 236 2.0 10.0 0.00 0.00 0.00 36 1009.2
20260506144434 76 96 3.0 8.0 0.00 0.00 0.00 36 1009.4
20260506143555 75 106 3.0 7.0 0.00 0.00 0.00 36 1009.5
20260506142634 76 84 2.0 8.0 0.00 0.00 0.00 35 1009.7
20260506141734 75 52 2.0 5.0 0.00 0.00 0.00 36 1009.8
20260506140855 75 231 4.0 9.0 0.00 0.00 0.00 36 1009.9